Year,Month,Day,Hour,Minute,Value (Times are PST for barometer in hPa)
2013,09,30,00,00,992.28
2013,09,30,00,01,992.35
2013,09,30,00,02,992.35
2013,09,30,00,03,992.38
2013,09,30,00,04,992.35
2013,09,30,00,05,992.38
2013,09,30,00,06,992.38
2013,09,30,00,07,992.38
2013,09,30,00,08,992.35
2013,09,30,00,09,992.38
2013,09,30,00,10,992.31
2013,09,30,00,11,992.35
2013,09,30,00,12,992.35
2013,09,30,00,13,992.35
2013,09,30,00,14,992.42
2013,09,30,00,15,992.38
2013,09,30,00,16,992.38
2013,09,30,00,17,992.38
2013,09,30,00,18,992.45
2013,09,30,00,19,992.45
2013,09,30,00,20,992.42
2013,09,30,00,21,992.42
2013,09,30,00,22,992.42
2013,09,30,00,23,992.52
2013,09,30,00,24,992.55
2013,09,30,00,25,992.58
2013,09,30,00,26,992.65
2013,09,30,00,27,992.72
2013,09,30,00,28,992.75
2013,09,30,00,29,992.72
2013,09,30,00,30,992.75
2013,09,30,00,31,992.75
2013,09,30,00,32,992.79
2013,09,30,00,33,992.82
2013,09,30,00,34,992.82
2013,09,30,00,35,992.89
2013,09,30,00,36,992.86
2013,09,30,00,37,992.92
2013,09,30,00,38,992.89
2013,09,30,00,39,992.86
2013,09,30,00,40,992.79
2013,09,30,00,41,992.69
2013,09,30,00,42,992.72
2013,09,30,00,43,992.72
2013,09,30,00,44,992.75
2013,09,30,00,45,992.69
2013,09,30,00,46,992.65
2013,09,30,00,47,992.65
2013,09,30,00,48,992.65
2013,09,30,00,49,992.65
2013,09,30,00,50,992.72
2013,09,30,00,51,992.82
2013,09,30,00,52,992.92
2013,09,30,00,53,992.96
2013,09,30,00,54,992.89
2013,09,30,00,55,992.92
2013,09,30,00,56,993.02
2013,09,30,00,57,993.03
2013,09,30,00,58,993.03
2013,09,30,00,59,992.82
2013,09,30,01,00,992.86
2013,09,30,01,01,992.86
2013,09,30,01,02,992.79
2013,09,30,01,03,992.89
2013,09,30,01,04,992.82
2013,09,30,01,05,992.75
2013,09,30,01,06,992.75
2013,09,30,01,07,992.69
2013,09,30,01,08,992.65
2013,09,30,01,09,992.72
2013,09,30,01,10,992.75
2013,09,30,01,11,992.82
2013,09,30,01,12,992.82
2013,09,30,01,13,992.86
2013,09,30,01,14,992.82
2013,09,30,01,15,992.89
2013,09,30,01,16,992.89
2013,09,30,01,17,992.89
2013,09,30,01,18,992.96
2013,09,30,01,19,993.03
2013,09,30,01,20,993.09
2013,09,30,01,21,993.23
2013,09,30,01,22,993.33
2013,09,30,01,23,993.33
2013,09,30,01,24,993.36
2013,09,30,01,25,993.50
2013,09,30,01,26,993.53
2013,09,30,01,27,993.60
2013,09,30,01,28,993.57
2013,09,30,01,29,993.67
2013,09,30,01,30,993.67
2013,09,30,01,31,993.70
2013,09,30,01,32,993.70
2013,09,30,01,33,993.74
2013,09,30,01,34,993.77
2013,09,30,01,35,993.70
2013,09,30,01,36,993.60
2013,09,30,01,37,993.47
2013,09,30,01,38,993.57
2013,09,30,01,39,993.57
2013,09,30,01,40,993.60
2013,09,30,01,41,993.60
2013,09,30,01,42,993.67
2013,09,30,01,43,993.77
2013,09,30,01,44,993.84
2013,09,30,01,45,993.77
2013,09,30,01,46,993.84
2013,09,30,01,47,993.87
2013,09,30,01,48,993.84
2013,09,30,01,49,993.80
2013,09,30,01,50,993.91
2013,09,30,01,51,993.91
2013,09,30,01,52,993.94
2013,09,30,01,53,993.97
2013,09,30,01,54,994.01
2013,09,30,01,55,994.07
2013,09,30,01,56,994.11
2013,09,30,01,57,994.18
2013,09,30,01,58,994.21
2013,09,30,01,59,994.31
2013,09,30,02,00,994.31
2013,09,30,02,01,994.24
2013,09,30,02,02,994.31
2013,09,30,02,03,994.52
2013,09,30,02,04,994.55
2013,09,30,02,05,994.41
2013,09,30,02,06,994.52
2013,09,30,02,07,994.85
2013,09,30,02,08,994.72
2013,09,30,02,09,994.92
2013,09,30,02,10,994.76
2013,09,30,02,11,994.58
2013,09,30,02,12,994.48
2013,09,30,02,13,994.52
2013,09,30,02,14,994.52
2013,09,30,02,15,994.48
2013,09,30,02,16,994.62
2013,09,30,02,17,994.55
2013,09,30,02,18,994.68
2013,09,30,02,19,994.68
2013,09,30,02,20,994.65
2013,09,30,02,21,994.58
2013,09,30,02,22,994.58
2013,09,30,02,23,994.55
2013,09,30,02,24,994.62
2013,09,30,02,25,994.55
2013,09,30,02,26,994.62
2013,09,30,02,27,994.58
2013,09,30,02,28,994.62
2013,09,30,02,29,994.65
2013,09,30,02,30,994.68
2013,09,30,02,31,994.79
2013,09,30,02,32,994.75
2013,09,30,02,33,994.89
2013,09,30,02,34,994.96
2013,09,30,02,35,994.89
2013,09,30,02,36,994.82
2013,09,30,02,37,994.96
2013,09,30,02,38,994.89
2013,09,30,02,39,994.99
2013,09,30,02,40,995.02
2013,09,30,02,41,995.02
2013,09,30,02,42,994.96
2013,09,30,02,43,995.02
2013,09,30,02,44,995.02
2013,09,30,02,45,995.09
2013,09,30,02,46,995.06
2013,09,30,02,47,995.02
2013,09,30,02,48,994.96
2013,09,30,02,49,995.06
2013,09,30,02,50,994.92
2013,09,30,02,51,994.99
2013,09,30,02,52,995.06
2013,09,30,02,53,994.99
2013,09,30,02,54,995.02
2013,09,30,02,55,994.99
2013,09,30,02,56,994.99
2013,09,30,02,57,994.92
2013,09,30,02,58,994.96
2013,09,30,02,59,994.99
2013,09,30,03,00,994.99
2013,09,30,03,01,995.02
2013,09,30,03,02,994.99
2013,09,30,03,03,995.06
2013,09,30,03,04,995.06
2013,09,30,03,05,994.96
2013,09,30,03,06,994.89
2013,09,30,03,07,994.79
2013,09,30,03,08,994.62
2013,09,30,03,09,994.75
2013,09,30,03,10,994.72
2013,09,30,03,11,994.75
2013,09,30,03,12,994.89
2013,09,30,03,13,994.89
2013,09,30,03,14,994.89
2013,09,30,03,15,994.96
2013,09,30,03,16,994.96
2013,09,30,03,17,994.99
2013,09,30,03,18,995.02
2013,09,30,03,19,995.06
2013,09,30,03,20,994.99
2013,09,30,03,21,994.99
2013,09,30,03,22,994.92
2013,09,30,03,23,994.96
2013,09,30,03,24,995.09
2013,09,30,03,25,995.06
2013,09,30,03,26,995.16
2013,09,30,03,27,995.16
2013,09,30,03,28,995.12
2013,09,30,03,29,995.23
2013,09,30,03,30,995.26
2013,09,30,03,31,995.29
2013,09,30,03,32,995.29
2013,09,30,03,33,995.36
2013,09,30,03,34,995.36
2013,09,30,03,35,995.46
2013,09,30,03,36,995.43
2013,09,30,03,37,995.46
2013,09,30,03,38,995.43
2013,09,30,03,39,995.46
2013,09,30,03,40,995.53
2013,09,30,03,41,995.33
2013,09,30,03,42,995.43
2013,09,30,03,43,995.46
2013,09,30,03,44,995.50
2013,09,30,03,45,995.56
2013,09,30,03,46,995.50
2013,09,30,03,47,995.53
2013,09,30,03,48,995.50
2013,09,30,03,49,995.56
2013,09,30,03,50,995.63
2013,09,30,03,51,995.63
2013,09,30,03,52,995.63
2013,09,30,03,53,995.63
2013,09,30,03,54,995.67
2013,09,30,03,55,995.56
2013,09,30,03,56,995.60
2013,09,30,03,57,995.60
2013,09,30,03,58,995.60
2013,09,30,03,59,995.70
2013,09,30,04,00,995.77
2013,09,30,04,01,995.80
2013,09,30,04,02,995.84
2013,09,30,04,03,995.90
2013,09,30,04,04,995.97
2013,09,30,04,05,996.07
2013,09,30,04,06,996.07
2013,09,30,04,07,996.04
2013,09,30,04,08,996.04
2013,09,30,04,09,995.97
2013,09,30,04,10,996.04
2013,09,30,04,11,996.11
2013,09,30,04,12,996.17
2013,09,30,04,13,996.21
2013,09,30,04,14,996.17
2013,09,30,04,15,996.17
2013,09,30,04,16,996.17
2013,09,30,04,17,996.21
2013,09,30,04,18,996.17
2013,09,30,04,19,996.21
2013,09,30,04,20,996.17
2013,09,30,04,21,996.21
2013,09,30,04,22,996.21
2013,09,30,04,23,996.24
2013,09,30,04,24,996.28
2013,09,30,04,25,996.28
2013,09,30,04,26,996.31
2013,09,30,04,27,996.31
2013,09,30,04,28,996.38
2013,09,30,04,29,996.38
2013,09,30,04,30,996.45
2013,09,30,04,31,996.41
2013,09,30,04,32,996.41
2013,09,30,04,33,996.51
2013,09,30,04,34,996.51
2013,09,30,04,35,996.55
2013,09,30,04,36,996.61
2013,09,30,04,37,996.68
2013,09,30,04,38,996.65
2013,09,30,04,39,996.65
2013,09,30,04,40,996.72
2013,09,30,04,41,996.68
2013,09,30,04,42,996.72
2013,09,30,04,43,996.75
2013,09,30,04,44,996.75
2013,09,30,04,45,996.75
2013,09,30,04,46,996.78
2013,09,30,04,47,996.85
2013,09,30,04,48,996.82
2013,09,30,04,49,996.78
2013,09,30,04,50,996.82
2013,09,30,04,51,996.72
2013,09,30,04,52,996.78
2013,09,30,04,53,996.68
2013,09,30,04,54,996.65
2013,09,30,04,55,996.75
2013,09,30,04,56,996.72
2013,09,30,04,57,996.78
2013,09,30,04,58,996.72
2013,09,30,04,59,996.75
2013,09,30,05,00,996.75
2013,09,30,05,01,996.72
2013,09,30,05,02,996.75
2013,09,30,05,03,996.75
2013,09,30,05,04,996.72
2013,09,30,05,05,996.72
2013,09,30,05,06,996.68
2013,09,30,05,07,996.68
2013,09,30,05,08,996.65
2013,09,30,05,09,996.65
2013,09,30,05,10,996.72
2013,09,30,05,11,996.68
2013,09,30,05,12,996.68
2013,09,30,05,13,996.65
2013,09,30,05,14,996.68
2013,09,30,05,15,996.72
2013,09,30,05,16,996.72
2013,09,30,05,17,996.75
2013,09,30,05,18,996.82
2013,09,30,05,19,996.78
2013,09,30,05,20,996.78
2013,09,30,05,21,996.78
2013,09,30,05,22,996.78
2013,09,30,05,23,996.75
2013,09,30,05,24,996.92
2013,09,30,05,25,997.12
2013,09,30,05,26,997.29
2013,09,30,05,27,997.39
2013,09,30,05,28,997.53
2013,09,30,05,29,997.63
2013,09,30,05,30,997.70
2013,09,30,05,31,997.87
2013,09,30,05,32,997.80
2013,09,30,05,33,997.83
2013,09,30,05,34,997.90
2013,09,30,05,35,997.73
2013,09,30,05,36,997.70
2013,09,30,05,37,997.66
2013,09,30,05,38,997.63
2013,09,30,05,39,997.73
2013,09,30,05,40,997.70
2013,09,30,05,41,997.77
2013,09,30,05,42,997.77
2013,09,30,05,43,997.77
2013,09,30,05,44,997.73
2013,09,30,05,45,997.73
2013,09,30,05,46,997.77
2013,09,30,05,47,997.80
2013,09,30,05,48,997.77
2013,09,30,05,49,997.77
2013,09,30,05,50,997.73
2013,09,30,05,51,997.77
2013,09,30,05,52,997.73
2013,09,30,05,53,997.66
2013,09,30,05,54,997.54
2013,09,30,05,55,997.43
2013,09,30,05,56,997.46
2013,09,30,05,57,997.46
2013,09,30,05,58,997.60
2013,09,30,05,59,997.50
2013,09,30,06,00,997.60
2013,09,30,06,01,997.66
2013,09,30,06,02,997.70
2013,09,30,06,03,997.73
2013,09,30,06,04,997.73
2013,09,30,06,05,997.77
2013,09,30,06,06,997.83
2013,09,30,06,07,997.80
2013,09,30,06,08,997.83
2013,09,30,06,09,997.80
2013,09,30,06,10,997.77
2013,09,30,06,11,997.77
2013,09,30,06,12,997.73
2013,09,30,06,13,997.70
2013,09,30,06,14,997.66
2013,09,30,06,15,997.73
2013,09,30,06,16,997.70
2013,09,30,06,17,997.63
2013,09,30,06,18,997.56
2013,09,30,06,19,997.70
2013,09,30,06,20,997.63
2013,09,30,06,21,997.66
2013,09,30,06,22,997.66
2013,09,30,06,23,997.63
2013,09,30,06,24,997.63
2013,09,30,06,25,997.70
2013,09,30,06,26,997.66
2013,09,30,06,27,997.66
2013,09,30,06,28,997.63
2013,09,30,06,29,997.66
2013,09,30,06,30,997.73
2013,09,30,06,31,997.70
2013,09,30,06,32,997.73
2013,09,30,06,33,997.77
2013,09,30,06,34,997.80
2013,09,30,06,35,997.83
2013,09,30,06,36,997.83
2013,09,30,06,37,997.90
2013,09,30,06,38,997.90
2013,09,30,06,39,997.87
2013,09,30,06,40,997.94
2013,09,30,06,41,997.97
2013,09,30,06,42,998.00
2013,09,30,06,43,998.04
2013,09,30,06,44,998.07
2013,09,30,06,45,998.14
2013,09,30,06,46,998.14
2013,09,30,06,47,998.24
2013,09,30,06,48,998.27
2013,09,30,06,49,998.38
2013,09,30,06,50,998.41
2013,09,30,06,51,998.48
2013,09,30,06,52,998.48
2013,09,30,06,53,998.58
2013,09,30,06,54,998.58
2013,09,30,06,55,998.65
2013,09,30,06,56,998.61
2013,09,30,06,57,998.65
2013,09,30,06,58,998.65
2013,09,30,06,59,998.68
2013,09,30,07,00,998.78
2013,09,30,07,01,998.78
2013,09,30,07,02,998.75
2013,09,30,07,03,998.71
2013,09,30,07,04,998.82
2013,09,30,07,05,998.78
2013,09,30,07,06,998.85
2013,09,30,07,07,998.85
2013,09,30,07,08,998.82
2013,09,30,07,09,998.88
2013,09,30,07,10,998.92
2013,09,30,07,11,998.88
2013,09,30,07,12,998.88
2013,09,30,07,13,998.95
2013,09,30,07,14,999.02
2013,09,30,07,15,999.09
2013,09,30,07,16,999.09
2013,09,30,07,17,999.12
2013,09,30,07,18,999.19
2013,09,30,07,19,999.22
2013,09,30,07,20,999.22
2013,09,30,07,21,999.22
2013,09,30,07,22,999.26
2013,09,30,07,23,999.26
2013,09,30,07,24,999.29
2013,09,30,07,25,999.29
2013,09,30,07,26,999.36
2013,09,30,07,27,999.39
2013,09,30,07,28,999.39
2013,09,30,07,29,999.39
2013,09,30,07,30,999.39
2013,09,30,07,31,999.46
2013,09,30,07,32,999.43
2013,09,30,07,33,999.46
2013,09,30,07,34,999.49
2013,09,30,07,35,999.46
2013,09,30,07,36,999.49
2013,09,30,07,37,999.56
2013,09,30,07,38,999.49
2013,09,30,07,39,999.56
2013,09,30,07,40,999.53
2013,09,30,07,41,999.62
2013,09,30,07,42,999.66
2013,09,30,07,43,999.70
2013,09,30,07,44,999.73
2013,09,30,07,45,999.76
2013,09,30,07,46,999.70
2013,09,30,07,47,999.76
2013,09,30,07,48,999.80
2013,09,30,07,49,999.80
2013,09,30,07,50,999.80
2013,09,30,07,51,999.73
2013,09,30,07,52,999.76
2013,09,30,07,53,999.73
2013,09,30,07,54,999.70
2013,09,30,07,55,999.73
2013,09,30,07,56,999.87
2013,09,30,07,57,999.93
2013,09,30,07,58,999.90
2013,09,30,07,59,999.87
2013,09,30,08,00,999.90
2013,09,30,08,01,999.80
2013,09,30,08,02,999.73
2013,09,30,08,03,999.76
2013,09,30,08,04,999.90
2013,09,30,08,05,999.83
2013,09,30,08,06,999.83
2013,09,30,08,07,999.87
2013,09,30,08,08,1000.06
2013,09,30,08,09,999.93
2013,09,30,08,10,1000.14
2013,09,30,08,11,999.98
2013,09,30,08,12,1000.07
2013,09,30,08,13,1000.15
2013,09,30,08,14,1000.27
2013,09,30,08,15,1000.31
2013,09,30,08,16,1000.20
2013,09,30,08,17,1000.17
2013,09,30,08,18,1000.17
2013,09,30,08,19,1000.27
2013,09,30,08,20,1000.17
2013,09,30,08,21,1000.27
2013,09,30,08,22,1000.37
2013,09,30,08,23,1000.37
2013,09,30,08,24,1000.31
2013,09,30,08,25,1000.48
2013,09,30,08,26,1000.54
2013,09,30,08,27,1000.48
2013,09,30,08,28,1000.58
2013,09,30,08,29,1000.64
2013,09,30,08,30,1000.68
2013,09,30,08,31,1000.71
2013,09,30,08,32,1000.75
2013,09,30,08,33,1000.78
2013,09,30,08,34,1000.78
2013,09,30,08,35,1000.81
2013,09,30,08,36,1000.68
2013,09,30,08,37,1000.64
2013,09,30,08,38,1000.64
2013,09,30,08,39,1000.78
2013,09,30,08,40,1000.64
2013,09,30,08,41,1000.71
2013,09,30,08,42,1000.68
2013,09,30,08,43,1000.64
2013,09,30,08,44,1000.61
2013,09,30,08,45,1000.77
2013,09,30,08,46,1000.64
2013,09,30,08,47,1000.54
2013,09,30,08,48,1000.75
2013,09,30,08,49,1000.58
2013,09,30,08,50,1000.58
2013,09,30,08,51,1000.58
2013,09,30,08,52,1000.61
2013,09,30,08,53,1000.64
2013,09,30,08,54,1000.64
2013,09,30,08,55,1000.68
2013,09,30,08,56,1000.71
2013,09,30,08,57,1000.71
2013,09,30,08,58,1000.75
2013,09,30,08,59,1000.85
2013,09,30,09,00,1000.78
2013,09,30,09,01,1000.78
2013,09,30,09,02,1000.81
2013,09,30,09,03,1000.85
2013,09,30,09,04,1000.95
2013,09,30,09,05,1000.88
2013,09,30,09,06,1000.81
2013,09,30,09,07,1000.85
2013,09,30,09,08,1000.92
2013,09,30,09,09,1000.98
2013,09,30,09,10,1000.98
2013,09,30,09,11,1001.02
2013,09,30,09,12,1001.08
2013,09,30,09,13,1001.15
2013,09,30,09,14,1001.19
2013,09,30,09,15,1001.22
2013,09,30,09,16,1001.25
2013,09,30,09,17,1001.25
2013,09,30,09,18,1001.32
2013,09,30,09,19,1001.39
2013,09,30,09,20,1001.39
2013,09,30,09,21,1001.46
2013,09,30,09,22,1001.52
2013,09,30,09,23,1001.52
2013,09,30,09,24,1001.49
2013,09,30,09,25,1001.56
2013,09,30,09,26,1001.45
2013,09,30,09,27,1001.32
2013,09,30,09,28,1001.36
2013,09,30,09,29,1001.36
2013,09,30,09,30,1001.32
2013,09,30,09,31,1001.39
2013,09,30,09,32,1001.36
2013,09,30,09,33,1001.39
2013,09,30,09,34,1001.49
2013,09,30,09,35,1001.59
2013,09,30,09,36,1001.56
2013,09,30,09,37,1001.59
2013,09,30,09,38,1001.66
2013,09,30,09,39,1001.63
2013,09,30,09,40,1001.66
2013,09,30,09,41,1001.76
2013,09,30,09,42,1001.83
2013,09,30,09,43,1001.83
2013,09,30,09,44,1001.97
2013,09,30,09,45,1001.93
2013,09,30,09,46,1001.97
2013,09,30,09,47,1001.93
2013,09,30,09,48,1001.97
2013,09,30,09,49,1002.03
2013,09,30,09,50,1002.03
2013,09,30,09,51,1002.17
2013,09,30,09,52,1002.17
2013,09,30,09,53,1002.07
2013,09,30,09,54,1002.10
2013,09,30,09,55,1002.00
2013,09,30,09,56,1002.07
2013,09,30,09,57,1002.10
2013,09,30,09,58,1002.07
2013,09,30,09,59,1002.10
2013,09,30,10,00,1002.07
2013,09,30,10,01,1002.07
2013,09,30,10,02,1002.10
2013,09,30,10,03,1002.10
2013,09,30,10,04,1002.03
2013,09,30,10,05,1002.07
2013,09,30,10,06,1002.07
2013,09,30,10,07,1002.10
2013,09,30,10,08,1002.13
2013,09,30,10,09,1002.13
2013,09,30,10,10,1002.13
2013,09,30,10,11,1002.13
2013,09,30,10,12,1002.20
2013,09,30,10,13,1002.20
2013,09,30,10,14,1002.13
2013,09,30,10,15,1002.17
2013,09,30,10,16,1002.27
2013,09,30,10,17,1002.30
2013,09,30,10,18,1002.20
2013,09,30,10,19,1002.30
2013,09,30,10,20,1002.34
2013,09,30,10,21,1002.34
2013,09,30,10,22,1002.30
2013,09,30,10,23,1002.37
2013,09,30,10,24,1002.37
2013,09,30,10,25,1002.30
2013,09,30,10,26,1002.41
2013,09,30,10,27,1002.37
2013,09,30,10,28,1002.71
2013,09,30,10,29,1002.81
2013,09,30,10,30,1002.85
2013,09,30,10,31,1002.85
2013,09,30,10,32,1002.91
2013,09,30,10,33,1002.91
2013,09,30,10,34,1002.88
2013,09,30,10,35,1002.88
2013,09,30,10,36,1002.74
2013,09,30,10,37,1002.68
2013,09,30,10,38,1002.64
2013,09,30,10,39,1002.64
2013,09,30,10,40,1002.57
2013,09,30,10,41,1002.51
2013,09,30,10,42,1002.54
2013,09,30,10,43,1002.47
2013,09,30,10,44,1002.51
2013,09,30,10,45,1002.51
2013,09,30,10,46,1002.51
2013,09,30,10,47,1002.54
2013,09,30,10,48,1002.51
2013,09,30,10,49,1002.54
2013,09,30,10,50,1002.57
2013,09,30,10,51,1002.57
2013,09,30,10,52,1002.54
2013,09,30,10,53,1002.54
2013,09,30,10,54,1002.54
2013,09,30,10,55,1002.61
2013,09,30,10,56,1002.61
2013,09,30,10,57,1002.61
2013,09,30,10,58,1002.57
2013,09,30,10,59,1002.61
2013,09,30,11,00,1002.57
2013,09,30,11,01,1002.64
2013,09,30,11,02,1002.74
2013,09,30,11,03,1002.81
2013,09,30,11,04,1002.81
2013,09,30,11,05,1002.88
2013,09,30,11,06,1002.88
2013,09,30,11,07,1002.95
2013,09,30,11,08,1002.98
2013,09,30,11,09,1002.98
2013,09,30,11,10,1002.91
2013,09,30,11,11,1002.91
2013,09,30,11,12,1002.91
2013,09,30,11,13,1002.98
2013,09,30,11,14,1002.88
2013,09,30,11,15,1002.91
2013,09,30,11,16,1002.91
2013,09,30,11,17,1002.98
2013,09,30,11,18,1002.91
2013,09,30,11,19,1003.15
2013,09,30,11,20,1003.25
2013,09,30,11,21,1003.05
2013,09,30,11,22,1003.17
2013,09,30,11,23,1003.32
2013,09,30,11,24,1003.17
2013,09,30,11,25,1003.01
2013,09,30,11,26,1003.11
2013,09,30,11,27,1003.08
2013,09,30,11,28,1003.18
2013,09,30,11,29,1003.18
2013,09,30,11,30,1003.15
2013,09,30,11,31,1003.02
2013,09,30,11,32,1003.12
2013,09,30,11,33,1003.22
2013,09,30,11,34,1003.35
2013,09,30,11,35,1003.29
2013,09,30,11,36,1003.29
2013,09,30,11,37,1003.39
2013,09,30,11,38,1003.39
2013,09,30,11,39,1003.42
2013,09,30,11,40,1003.49
2013,09,30,11,41,1003.49
2013,09,30,11,42,1003.42
2013,09,30,11,43,1003.46
2013,09,30,11,44,1003.52
2013,09,30,11,45,1003.56
2013,09,30,11,46,1003.59
2013,09,30,11,47,1003.66
2013,09,30,11,48,1003.59
2013,09,30,11,49,1003.62
2013,09,30,11,50,1003.59
2013,09,30,11,51,1003.59
2013,09,30,11,52,1003.59
2013,09,30,11,53,1003.62
2013,09,30,11,54,1003.52
2013,09,30,11,55,1003.56
2013,09,30,11,56,1003.66
2013,09,30,11,57,1003.83
2013,09,30,11,58,1003.86
2013,09,30,11,59,1003.73
2013,09,30,12,00,1003.73
2013,09,30,12,01,1003.59
2013,09,30,12,02,1003.83
2013,09,30,12,03,1003.83
2013,09,30,12,04,1004.03
2013,09,30,12,05,1004.13
2013,09,30,12,06,1004.20
2013,09,30,12,07,1004.30
2013,09,30,12,08,1004.34
2013,09,30,12,09,1004.40
2013,09,30,12,10,1004.47
2013,09,30,12,11,1004.57
2013,09,30,12,12,1004.67
2013,09,30,12,13,1004.81
2013,09,30,12,14,1004.67
2013,09,30,12,15,1004.78
2013,09,30,12,16,1004.88
2013,09,30,12,17,1004.88
2013,09,30,12,18,1004.78
2013,09,30,12,19,1004.67
2013,09,30,12,20,1004.61
2013,09,30,12,21,1004.61
2013,09,30,12,22,1004.54
2013,09,30,12,23,1004.44
2013,09,30,12,24,1004.64
2013,09,30,12,25,1004.67
2013,09,30,12,26,1004.78
2013,09,30,12,27,1004.90
2013,09,30,12,28,1004.95
2013,09,30,12,29,1004.95
2013,09,30,12,30,1004.88
2013,09,30,12,31,1004.91
2013,09,30,12,32,1004.71
2013,09,30,12,33,1004.67
2013,09,30,12,34,1004.67
2013,09,30,12,35,1004.67
2013,09,30,12,36,1004.64
2013,09,30,12,37,1004.64
2013,09,30,12,38,1004.50
2013,09,30,12,39,1004.57
2013,09,30,12,40,1004.54
2013,09,30,12,41,1004.54
2013,09,30,12,42,1004.54
2013,09,30,12,43,1004.57
2013,09,30,12,44,1004.57
2013,09,30,12,45,1004.57
2013,09,30,12,46,1004.61
2013,09,30,12,47,1004.64
2013,09,30,12,48,1004.57
2013,09,30,12,49,1004.57
2013,09,30,12,50,1004.57
2013,09,30,12,51,1004.61
2013,09,30,12,52,1004.64
2013,09,30,12,53,1004.61
2013,09,30,12,54,1004.61
2013,09,30,12,55,1004.54
2013,09,30,12,56,1004.57
2013,09,30,12,57,1004.57
2013,09,30,12,58,1004.61
2013,09,30,12,59,1004.61
2013,09,30,13,00,1004.64
2013,09,30,13,01,1004.71
2013,09,30,13,02,1004.74
2013,09,30,13,03,1004.81
2013,09,30,13,04,1004.78
2013,09,30,13,05,1004.67
2013,09,30,13,06,1004.71
2013,09,30,13,07,1004.88
2013,09,30,13,08,1004.98
2013,09,30,13,09,1005.01
2013,09,30,13,10,1005.01
2013,09,30,13,11,1005.01
2013,09,30,13,12,1005.08
2013,09,30,13,13,1005.05
2013,09,30,13,14,1005.01
2013,09,30,13,15,1005.05
2013,09,30,13,16,1005.05
2013,09,30,13,17,1005.01
2013,09,30,13,18,1005.11
2013,09,30,13,19,1005.21
2013,09,30,13,20,1005.39
2013,09,30,13,21,1005.45
2013,09,30,13,22,1005.55
2013,09,30,13,23,1005.55
2013,09,30,13,24,1005.55
2013,09,30,13,25,1005.69
2013,09,30,13,26,1005.59
2013,09,30,13,27,1005.62
2013,09,30,13,28,1005.59
2013,09,30,13,29,1005.59
2013,09,30,13,30,1005.59
2013,09,30,13,31,1005.55
2013,09,30,13,32,1005.66
2013,09,30,13,33,1005.59
2013,09,30,13,34,1005.62
2013,09,30,13,35,1005.72
2013,09,30,13,36,1005.69
2013,09,30,13,37,1005.69
2013,09,30,13,38,1005.69
2013,09,30,13,39,1005.72
2013,09,30,13,40,1005.66
2013,09,30,13,41,1005.59
2013,09,30,13,42,1005.52
2013,09,30,13,43,1005.62
2013,09,30,13,44,1005.66
2013,09,30,13,45,1005.55
2013,09,30,13,46,1005.59
2013,09,30,13,47,1005.69
2013,09,30,13,48,1005.66
2013,09,30,13,49,1005.69
2013,09,30,13,50,1005.66
2013,09,30,13,51,1005.69
2013,09,30,13,52,1005.69
2013,09,30,13,53,1005.62
2013,09,30,13,54,1005.66
2013,09,30,13,55,1005.72
2013,09,30,13,56,1005.66
2013,09,30,13,57,1005.59
2013,09,30,13,58,1005.66
2013,09,30,13,59,1005.66
2013,09,30,14,00,1005.72
2013,09,30,14,01,1005.69
2013,09,30,14,02,1005.69
2013,09,30,14,03,1005.69
2013,09,30,14,04,1005.69
2013,09,30,14,05,1005.69
2013,09,30,14,06,1005.72
2013,09,30,14,07,1005.62
2013,09,30,14,08,1005.66
2013,09,30,14,09,1005.62
2013,09,30,14,10,1005.75
2013,09,30,14,11,1005.62
2013,09,30,14,12,1005.66
2013,09,30,14,13,1005.66
2013,09,30,14,14,1005.76
2013,09,30,14,15,1005.62
2013,09,30,14,16,1005.72
2013,09,30,14,17,1005.79
2013,09,30,14,18,1005.79
2013,09,30,14,19,1005.76
2013,09,30,14,20,1005.83
2013,09,30,14,21,1005.86
2013,09,30,14,22,1005.86
2013,09,30,14,23,1005.99
2013,09,30,14,24,1005.99
2013,09,30,14,25,1006.06
2013,09,30,14,26,1006.03
2013,09,30,14,27,1006.16
2013,09,30,14,28,1006.20
2013,09,30,14,29,1006.13
2013,09,30,14,30,1006.06
2013,09,30,14,31,1006.03
2013,09,30,14,32,1006.10
2013,09,30,14,33,1006.03
2013,09,30,14,34,1006.16
2013,09,30,14,35,1006.23
2013,09,30,14,36,1006.23
2013,09,30,14,37,1006.27
2013,09,30,14,38,1006.23
2013,09,30,14,39,1006.27
2013,09,30,14,40,1006.23
2013,09,30,14,41,1006.30
2013,09,30,14,42,1006.30
2013,09,30,14,43,1006.20
2013,09,30,14,44,1006.33
2013,09,30,14,45,1006.27
2013,09,30,14,46,1006.37
2013,09,30,14,47,1006.37
2013,09,30,14,48,1006.27
2013,09,30,14,49,1006.30
2013,09,30,14,50,1006.30
2013,09,30,14,51,1006.33
2013,09,30,14,52,1006.40
2013,09,30,14,53,1006.53
2013,09,30,14,54,1006.40
2013,09,30,14,55,1006.44
2013,09,30,14,56,1006.44
2013,09,30,14,57,1006.47
2013,09,30,14,58,1006.60
2013,09,30,14,59,1006.64
2013,09,30,15,00,1006.57
2013,09,30,15,01,1006.64
2013,09,30,15,02,1006.60
2013,09,30,15,03,1006.60
2013,09,30,15,04,1006.60
2013,09,30,15,05,1006.60
2013,09,30,15,06,1006.64
2013,09,30,15,07,1006.60
2013,09,30,15,08,1006.60
2013,09,30,15,09,1006.60
2013,09,30,15,10,1006.54
2013,09,30,15,11,1006.60
2013,09,30,15,12,1006.57
2013,09,30,15,13,1006.60
2013,09,30,15,14,1006.57
2013,09,30,15,15,1006.57
2013,09,30,15,16,1006.60
2013,09,30,15,17,1006.54
2013,09,30,15,18,1006.57
2013,09,30,15,19,1006.60
2013,09,30,15,20,1006.60
2013,09,30,15,21,1006.57
2013,09,30,15,22,1006.67
2013,09,30,15,23,1006.84
2013,09,30,15,24,1006.91
2013,09,30,15,25,1006.77
2013,09,30,15,26,1006.74
2013,09,30,15,27,1006.77
2013,09,30,15,28,1006.71
2013,09,30,15,29,1006.77
2013,09,30,15,30,1006.77
2013,09,30,15,31,1006.81
2013,09,30,15,32,1006.91
2013,09,30,15,33,1006.91
2013,09,30,15,34,1006.88
2013,09,30,15,35,1006.94
2013,09,30,15,36,1006.91
2013,09,30,15,37,1006.88
2013,09,30,15,38,1006.81
2013,09,30,15,39,1006.88
2013,09,30,15,40,1006.88
2013,09,30,15,41,1006.91
2013,09,30,15,42,1006.94
2013,09,30,15,43,1006.94
2013,09,30,15,44,1007.04
2013,09,30,15,45,1007.01
2013,09,30,15,46,1007.01
2013,09,30,15,47,1007.04
2013,09,30,15,48,1006.98
2013,09,30,15,49,1006.94
2013,09,30,15,50,1006.88
2013,09,30,15,51,1006.91
2013,09,30,15,52,1006.91
2013,09,30,15,53,1006.94
2013,09,30,15,54,1006.94
2013,09,30,15,55,1006.94
2013,09,30,15,56,1006.94
2013,09,30,15,57,1006.94
2013,09,30,15,58,1006.94
2013,09,30,15,59,1007.04
2013,09,30,16,00,1007.04
2013,09,30,16,01,1006.91
2013,09,30,16,02,1006.91
2013,09,30,16,03,1006.98
2013,09,30,16,04,1006.91
2013,09,30,16,05,1006.98
2013,09,30,16,06,1006.94
2013,09,30,16,07,1006.88
2013,09,30,16,08,1006.94
2013,09,30,16,09,1006.91
2013,09,30,16,10,1006.84
2013,09,30,16,11,1006.91
2013,09,30,16,12,1006.88
2013,09,30,16,13,1006.91
2013,09,30,16,14,1006.88
2013,09,30,16,15,1006.91